Wind_Speed
11 11 10 10 9 11 12 13 14 14 13 13 14 14 14 15 15 16 17 17 18 19 19 19 20 21 23 25 26 26 25 23 22 22 23 24 24 25 26 27 28 29
11 10 9 8 9 10 11 13 14 13 13 13 13 13 14 15 16 17 17 18 18 19 19 20 21 22 24 26 26 25 24 22 22 23 23 24 25 26 27 28 28 29
11 10 8 8 9 10 11 13 14 13 13 13 14 14 15 16 17 17 17 18 18 19 20 21 22 24 25 25 25 24 23 22 22 23 24 25 26 26 27 28 29 29
11 9 8 9 10 11 12 14 14 13 13 14 14 15 16 16 17 18 18 17 18 19 20 22 24 25 25 25 24 24 22 22 23 24 25 25 26 27 27 28 29 30
10 9 9 10 11 12 14 14 14 13 14 15 15 15 16 17 17 18 18 18 18 19 21 23 24 25 25 25 24 24 23 23 24 24 25 26 26 27 28 28 29 31
9 9 10 10 11 13 14 14 13 13 14 14 15 15 16 17 17 17 18 19 20 21 22 23 24 24 25 25 24 24 24 24 24 25 26 26 27 27 28 29 30 32
10 10 10 10 11 13 14 12 12 14 14 14 15 15 16 17 17 17 19 20 21 22 23 23 23 24 25 25 25 25 26 25 25 26 27 27 28 28 28 30 31 32
11 11 10 10 12 14 13 12 13 14 14 14 15 16 16 17 17 18 20 21 22 23 24 24 23 23 24 25 26 26 27 27 27 28 28 28 29 29 29 31 32 33
11 10 10 12 14 13 12 12 13 14 14 15 16 16 16 17 18 19 20 21 22 23 24 24 24 24 24 25 26 27 27 27 27 29 29 29 29 29 30 31 32 33
11 11 12 13 14 13 12 13 14 14 15 16 17 16 17 18 19 20 21 22 23 24 25 25 25 25 25 25 26 27 27 27 28 29 30 30 30 30 30 32 33 33
11 12 12 14 14 13 13 13 13 14 16 17 17 17 18 19 20 21 23 24 25 25 26 26 26 26 25 25 26 27 27 27 28 29 30 30 30 30 31 32 33 33
11 12 13 13 13 13 13 13 13 15 17 17 18 18 19 20 22 23 25 26 26 26 26 27 26 26 25 25 26 26 27 27 28 29 30 30 30 30 31 32 32 32
12 12 13 13 13 13 13 13 14 16 18 18 19 20 21 23 24 26 27 27 27 27 27 27 26 26 26 26 26 26 27 27 28 29 29 30 30 30 31 31 31 32
12 13 13 14 14 13 14 14 16 18 19 19 20 22 23 25 26 27 28 28 27 27 27 27 26 27 27 27 27 27 27 27 27 28 28 29 29 30 30 30 31 31
12 13 13 13 14 14 15 16 18 19 20 21 22 24 25 26 27 28 28 28 28 28 28 27 27 28 28 27 26 27 27 26 26 27 28 28 28 29 29 29 30 31
12 13 13 14 15 16 18 19 20 20 21 22 23 25 26 26 27 28 28 28 29 29 29 28 28 28 28 27 26 27 26 25 25 26 27 28 27 28 28 29 30 31
13 14 14 15 16 18 19 20 20 20 21 22 23 25 26 26 27 27 27 28 29 30 29 29 29 28 28 27 26 26 26 24 24 26 27 27 26 27 27 28 29 30
15 15 16 17 19 20 21 20 20 21 21 22 23 25 25 26 26 27 28 29 29 29 29 28 28 28 27 26 26 25 24 23 24 26 26 26 25 26 27 28 29 30
16 17 18 19 20 21 22 22 22 22 21 22 23 25 25 26 27 28 28 29 29 29 28 28 28 27 27 26 25 23 22 23 25 26 25 25 25 25 26 28 29 29
17 17 18 19 19 19 19 21 21 21 21 22 24 24 25 26 28 28 29 28 28 28 28 28 28 27 26 25 24 22 22 23 25 25 25 24 24 25 26 27 28 28
15 15 16 16 17 17 17 18 19 20 21 22 24 24 26 27 28 28 29 28 28 27 27 28 27 26 25 24 22 22 22 24 25 25 24 23 24 25 26 27 28 27
13 13 13 13 14 15 16 17 18 19 21 23 24 25 26 28 28 29 29 28 27 27 27 27 26 25 24 23 22 21 23 24 25 24 23 23 23 25 26 27 27 26
14 14 13 12 13 15 16 17 18 20 22 23 24 26 27 28 29 30 30 29 27 27 27 27 25 24 24 22 21 21 23 24 24 24 23 22 23 25 26 26 26 26
16 15 14 13 14 15 16 18 19 21 23 24 26 27 28 29 30 31 30 29 28 27 27 26 24 23 23 22 21 21 23 24 24 24 23 23 24 25 25 25 25 25
18 17 16 16 17 18 18 19 20 22 24 26 27 28 29 30 31 31 30 29 28 27 27 25 23 23 23 21 21 21 23 24 25 24 23 23 24 25 25 25 25 25
19 18 18 19 20 20 20 21 22 24 25 27 29 29 30 31 31 31 30 29 28 28 26 24 23 23 22 21 21 22 23 25 25 24 23 23 24 25 25 25 25 25
Wind_Direction
215 225 233 233 232 235 242 253 255 251 249 251 256 265 274 283 288 292 295 297 299 300 302 304 306 308 311 314 316 318 320 322 324 325 326 327 327 328 330 331 331 330
212 215 215 219 230 240 246 250 251 250 251 255 262 271 279 284 287 290 293 296 297 299 301 303 305 308 311 314 317 319 320 323 325 325 326 327 328 330 333 333 332 331
199 198 210 230 241 244 246 249 252 254 256 261 268 274 279 283 285 289 293 295 297 299 301 302 305 308 311 314 317 318 320 323 325 325 326 327 329 332 334 334 332 331
191 203 228 243 243 243 246 248 252 255 259 263 268 272 277 281 285 289 292 294 296 298 299 302 305 309 312 314 316 317 320 323 324 325 326 328 330 332 333 332 331 331
203 228 241 241 240 243 244 245 250 254 257 262 266 271 277 282 286 289 291 293 294 295 298 302 306 309 311 313 315 317 321 323 324 325 325 326 329 332 332 330 330 330
227 240 239 236 239 242 243 245 249 253 258 262 267 272 277 281 284 287 290 292 294 296 299 303 306 308 310 311 314 318 321 323 323 323 324 326 328 330 329 329 329 329
234 235 232 233 238 242 245 247 251 255 259 263 266 271 275 278 281 284 288 291 295 298 301 303 306 308 309 311 315 318 320 322 322 322 323 325 326 327 327 328 328 328
231 232 230 232 238 243 246 248 251 254 257 260 265 269 273 276 280 284 288 293 297 300 303 305 308 309 310 312 315 317 318 320 321 322 322 323 324 326 327 327 327 327
228 229 228 232 239 243 246 248 250 252 256 261 265 268 272 277 282 286 290 295 299 302 305 308 310 311 312 313 314 314 316 318 320 320 320 321 322 324 325 326 326 326
224 226 228 233 237 240 242 245 249 254 259 263 265 269 274 279 284 289 293 297 300 304 307 311 313 313 313 312 311 312 313 316 319 318 318 319 321 322 324 324 325 325
221 225 228 232 236 238 242 247 253 259 261 263 267 272 276 282 288 292 296 299 302 306 310 313 315 314 312 310 308 309 312 315 316 317 317 318 319 321 322 324 325 326
221 225 228 233 237 241 246 252 257 260 262 266 271 275 279 286 291 295 297 301 304 308 312 314 314 313 312 310 308 309 310 312 314 315 316 317 318 320 322 324 325 326
219 223 228 234 240 244 249 255 259 261 265 269 274 279 285 290 293 295 298 302 306 309 312 313 312 311 311 312 312 311 310 310 311 313 314 316 318 320 322 324 326 327
221 225 230 236 243 249 254 258 260 264 268 273 278 284 288 290 292 296 299 303 306 309 311 311 310 310 311 315 316 314 311 310 309 310 313 315 318 321 324 326 327 327
228 232 237 241 248 252 255 258 262 266 270 275 281 285 287 289 292 296 300 303 306 309 311 311 311 311 313 317 317 315 312 310 309 311 314 316 319 324 326 327 327 327
239 243 246 249 251 253 256 260 263 266 270 276 282 285 287 290 293 296 299 303 306 309 311 311 311 312 315 317 316 313 311 309 311 313 315 318 322 325 326 326 327 326
249 253 256 257 257 258 260 262 264 268 275 279 282 285 287 290 294 296 299 303 306 309 310 310 310 312 315 316 314 311 309 309 312 314 316 320 324 325 325 326 326 326
250 255 259 261 263 263 261 261 264 269 275 279 282 286 289 293 297 299 302 304 306 308 308 308 310 313 315 314 311 308 308 309 312 314 317 322 324 325 325 325 325 325
251 256 259 261 263 262 258 257 261 267 272 278 284 289 293 297 300 301 303 305 306 307 307 307 309 311 312 310 308 307 307 309 312 315 318 322 324 324 324 324 324 324
254 258 259 258 257 258 256 255 258 264 271 279 286 292 296 298 300 301 302 304 305 306 305 305 307 308 307 306 305 304 306 309 313 316 319 322 322 322 322 322 323 323
258 261 260 256 253 253 254 256 260 267 273 281 287 293 296 297 299 300 302 304 305 305 303 304 305 305 304 302 301 302 306 311 314 316 319 321 321 321 321 321 321 321
259 261 261 258 254 254 257 261 266 270 276 283 289 292 295 297 299 301 303 304 304 302 300 301 302 302 300 297 297 301 307 312 314 316 319 320 320 320 320 320 320 320
256 260 262 263 262 262 264 266 269 273 279 285 289 292 295 298 300 302 304 304 302 299 297 297 298 297 296 294 295 301 309 313 314 316 318 318 318 319 318 318 318 320
255 257 261 267 269 269 269 270 272 277 282 287 291 294 297 300 302 303 303 302 298 295 294 295 294 293 292 292 294 302 309 312 313 314 316 316 316 316 316 316 317 319
256 259 264 269 272 273 273 274 277 281 286 290 293 296 298 300 301 302 301 298 295 293 294 294 291 290 291 291 294 302 308 310 311 312 313 313 314 314 315 315 317 319
257 263 267 271 273 275 277 278 281 285 288 292 295 297 299 300 300 300 299 297 295 294 293 291 289 288 290 291 295 302 307 308 308 310 310 311 313 314 314 315 315 318
Height
5809 5810 5812 5813 5814 5815 5816 5817 5818 5818 5818 5819 5819 5820 5820 5819 5818 5818 5817 5816 5815 5813 5812 5812 5810 5809 5808 5806 5805 5803 5801 5800 5799 5797 5794 5792 5790 5788 5786 5783 5781 5779
5808 5809 5810 5812 5813 5814 5815 5815 5816 5817 5817 5817 5818 5818 5818 5817 5817 5816 5815 5814 5813 5812 5811 5810 5808 5807 5805 5804 5802 5800 5799 5798 5796 5794 5792 5790 5788 5785 5783 5781 5779 5777
5806 5808 5809 5811 5812 5813 5813 5814 5814 5815 5815 5816 5816 5816 5816 5816 5815 5814 5814 5813 5811 5810 5809 5808 5806 5805 5803 5801 5800 5798 5797 5796 5794 5791 5789 5787 5785 5783 5780 5778 5777 5774
5805 5807 5808 5809 5810 5811 5812 5813 5813 5813 5814 5815 5815 5815 5815 5814 5813 5812 5812 5811 5810 5808 5807 5806 5804 5802 5801 5799 5798 5796 5795 5793 5791 5789 5787 5785 5783 5780 5778 5776 5775 5772
5804 5806 5807 5808 5809 5810 5811 5811 5812 5813 5813 5814 5814 5814 5813 5813 5812 5811 5810 5809 5808 5807 5805 5804 5802 5800 5799 5797 5796 5794 5792 5790 5788 5786 5784 5782 5780 5778 5776 5774 5773 5770
5803 5804 5805 5806 5807 5809 5809 5810 5811 5812 5812 5812 5812 5812 5812 5811 5810 5809 5808 5807 5806 5805 5803 5802 5800 5798 5797 5795 5793 5791 5790 5788 5786 5784 5782 5780 5778 5776 5774 5772 5770 5768
5802 5803 5804 5805 5806 5807 5808 5808 5809 5810 5811 5811 5810 5810 5810 5809 5808 5807 5806 5805 5804 5802 5801 5800 5798 5797 5795 5792 5791 5789 5787 5785 5783 5781 5780 5778 5776 5774 5772 5770 5768 5766
5801 5802 5802 5803 5804 5805 5806 5807 5808 5808 5809 5809 5808 5808 5808 5807 5806 5806 5804 5803 5801 5800 5799 5798 5796 5795 5792 5790 5788 5786 5784 5783 5781 5779 5777 5775 5774 5772 5770 5768 5766 5764
5799 5800 5801 5802 5802 5803 5804 5805 5806 5807 5807 5807 5806 5806 5806 5805 5804 5803 5802 5801 5799 5798 5796 5795 5794 5792 5790 5787 5786 5784 5782 5781 5778 5776 5775 5773 5771 5769 5768 5766 5764 5761
5797 5798 5799 5800 5800 5801 5802 5803 5804 5805 5805 5805 5804 5804 5804 5803 5802 5801 5800 5798 5797 5795 5794 5793 5791 5789 5787 5785 5783 5781 5780 5778 5776 5774 5772 5771 5769 5767 5765 5763 5761 5759
5795 5797 5798 5798 5798 5799 5800 5801 5803 5803 5803 5802 5802 5802 5801 5801 5800 5799 5797 5796 5794 5793 5791 5790 5788 5786 5784 5783 5781 5779 5777 5775 5774 5772 5770 5768 5766 5765 5763 5761 5759 5756
5794 5795 5796 5796 5796 5798 5799 5800 5801 5801 5800 5800 5800 5800 5799 5798 5797 5796 5794 5793 5792 5790 5789 5787 5786 5784 5782 5780 5778 5776 5774 5773 5771 5769 5768 5766 5764 5762 5760 5758 5756 5754
5792 5793 5793 5794 5795 5796 5797 5798 5799 5798 5798 5798 5798 5797 5797 5796 5794 5793 5792 5790 5789 5788 5786 5785 5783 5781 5779 5777 5775 5773 5772 5770 5768 5767 5765 5763 5762 5760 5758 5756 5754 5751
5790 5790 5791 5792 5793 5794 5795 5796 5796 5796 5796 5796 5795 5795 5794 5793 5791 5790 5789 5787 5786 5785 5784 5782 5780 5778 5777 5774 5772 5770 5769 5767 5766 5764 5763 5761 5759 5757 5755 5753 5751 5749
5787 5788 5789 5790 5791 5792 5793 5794 5794 5793 5793 5793 5792 5792 5791 5790 5788 5787 5786 5784 5783 5782 5780 5779 5777 5775 5773 5771 5769 5768 5766 5764 5763 5761 5760 5759 5757 5755 5753 5750 5748 5746
5785 5786 5787 5788 5789 5790 5790 5791 5791 5791 5791 5790 5789 5788 5788 5787 5786 5784 5783 5782 5780 5779 5777 5775 5773 5771 5770 5768 5767 5765 5764 5762 5761 5759 5758 5756 5754 5752 5750 5748 5746 5744
5784 5785 5786 5786 5787 5787 5787 5788 5788 5788 5788 5787 5786 5785 5785 5784 5783 5781 5780 5779 5777 5775 5774 5772 5770 5768 5767 5765 5764 5763 5761 5760 5758 5757 5755 5753 5751 5750 5748 5745 5743 5741
5782 5783 5783 5784 5784 5784 5785 5785 5785 5785 5784 5784 5783 5782 5782 5780 5779 5778 5777 5776 5774 5772 5771 5769 5767 5765 5764 5763 5762 5760 5759 5757 5756 5755 5753 5751 5749 5747 5745 5743 5741 5739
5780 5780 5781 5781 5781 5781 5781 5782 5782 5782 5781 5781 5780 5779 5778 5777 5776 5775 5774 5772 5771 5769 5767 5766 5764 5763 5762 5760 5759 5758 5756 5755 5754 5752 5750 5748 5746 5744 5742 5741 5739 5737
5777 5777 5777 5778 5778 5778 5778 5778 5778 5779 5778 5778 5777 5776 5775 5774 5773 5772 5771 5769 5768 5766 5764 5763 5761 5760 5759 5758 5756 5755 5754 5753 5751 5749 5747 5745 5744 5742 5740 5738 5737 5735
5774 5774 5774 5774 5775 5775 5775 5775 5776 5776 5775 5774 5774 5773 5772 5771 5770 5769 5767 5766 5764 5763 5761 5760 5759 5758 5756 5755 5754 5753 5751 5750 5749 5747 5745 5743 5741 5739 5738 5736 5734 5733
5771 5771 5771 5771 5772 5772 5773 5773 5773 5773 5772 5771 5770 5770 5769 5768 5767 5765 5764 5763 5761 5760 5758 5757 5756 5755 5754 5752 5751 5750 5749 5747 5746 5744 5742 5740 5738 5737 5735 5734 5732 5730
5768 5768 5768 5769 5769 5769 5770 5770 5770 5770 5769 5768 5767 5766 5765 5764 5763 5762 5761 5759 5758 5757 5755 5754 5753 5752 5751 5750 5749 5748 5746 5745 5743 5741 5739 5738 5736 5735 5733 5731 5730 5728
5765 5765 5766 5766 5766 5766 5767 5767 5767 5766 5766 5765 5764 5763 5762 5761 5760 5758 5757 5756 5755 5754 5752 5751 5750 5749 5748 5747 5746 5745 5744 5742 5741 5739 5737 5736 5734 5732 5731 5729 5727 5725
5762 5762 5763 5763 5763 5763 5764 5764 5764 5763 5762 5761 5760 5760 5759 5757 5756 5755 5754 5753 5752 5750 5749 5748 5747 5746 5745 5744 5743 5742 5741 5740 5738 5736 5735 5733 5732 5730 5729 5727 5725 5723
5759 5759 5759 5759 5760 5760 5760 5760 5760 5759 5759 5758 5757 5756 5755 5754 5753 5752 5751 5749 5748 5747 5746 5745 5743 5742 5742 5741 5740 5739 5738 5737 5735 5734 5733 5731 5730 5728 5726 5724 5723 5721